Content
SEND FEEDBACK

Daily
Averages
Monthly
Summary
United States of America

ASHEVILLE, NORTH CAROLINA


Home > North America > United States > North Carolina
Elevation: 682 meters     Latitude: 35 36N     Longitude: 082 32W

WEATHER
 
SELECT A DAY
Number of Records: 229,403;   Date Range: 1/1/95 - 10/18/14
 
SHARE

PRINT THIS DATA

[ ← Previous Day ]
WEATHER ALMANAC - 13 FEBRUARY, 2013
[ Next Day → ]
[ °F ]   °C
Weather ElementAverageHighLow
Temperature4.9 °C12.2 °C (3:54 pm)1.7 °C (9:54 pm)
Dewpoint2.8 °C6.1 °C (2:54 pm)-1.7 °C (9:54 pm)
Humidity87.7 %100 % (8:54 am)49 % (3:54 pm)
Barometer1007.5 hPa1012.5 hPa (11:54 pm)1003 hPa (3:54 pm)
Wind Speed11.4 km/h33.3 km/h (5:54 pm)
Wind Gust48.1 km/h (5:54 pm)
Weather ElementAverage
Visibility11.4 km
Wind DirectionSSW (190.6 °)

Weather ElementTotal
Precipitation2.03 mm
Heating Degree Days11.4 (Base 18.3)
Averaged from 33 records on 13 February, 2013
WEATHER CONDITIONS BREAKOUT
WIND DIRECTION BREAKOUT
WEATHER BY HOUR - 13 FEBRUARY, 2013
[ °F ]   °C
Local TimeTemperatureDewpointHumidityBarometerVisibilityWind DirectionWind SpeedGust SpeedPrecipitationEventsConditions
1:54 AM3.9 °C3.3 °C96 %1010.8 hPa16.1 kmCalm1.27 mmRainLight Rain
2:54 AM4.4 °C2.8 °C89 %1010.2 hPa16.1 kmCalm0 mmOvercast
3:54 AM3.9 °C3.3 °C96 %1009.1 hPa16.1 kmCalmOvercast
4:54 AM3.9 °C3.3 °C96 %1008.8 hPa16.1 kmSSE (150°)7.4 km/h0 mmOvercast
5:30 AM4 °C3 °C93 %1008.5 hPa14.5 kmSSE (150°)7.4 km/h0 mmOvercast
5:54 AM3.9 °C3.3 °C96 %1008.5 hPa16.1 kmSE (140°)5.6 km/h0 mmOvercast
6:54 AM3.9 °C3.3 °C96 %1007.8 hPa16.1 kmSSE (160°)5.6 km/hOvercast
7:09 AM4 °C3 °C93 %1008.1 hPa3.2 kmSouth (170°)7.4 km/hOvercast
7:19 AM4 °C3 °C93 %1007.8 hPa3.2 kmSE (140°)5.6 km/hOvercast
7:38 AM4 °C3 °C93 %1008.1 hPa3.2 kmSSE (160°)11.1 km/hOvercast
7:54 AM3.9 °C3.3 °C96 %1008.5 hPa3.2 kmSouth (180°)7.4 km/hOvercast
8:54 AM3.9 °C3.9 °C100 %1007.8 hPa3.2 kmSouth (170°)9.3 km/hOvercast
9:54 AM3.9 °C3.9 °C100 %1007.1 hPa3.2 kmSE (130°)9.3 km/hOvercast
10:39 AM4 °C4 °C100 %1006.8 hPa3.2 kmSE (140°)7.4 km/hOvercast
10:54 AM4.4 °C3.9 °C97 %1006.8 hPa3.2 kmSSE (150°)7.4 km/hOvercast
11:04 AM4 °C4 °C100 %1007.1 hPa2.4 kmSSE (150°)5.6 km/hOvercast
11:29 AM4 °C4 °C100 %1006.1 hPa3.2 kmESE (120°)9.3 km/h0.25 mmOvercast
11:51 AM5 °C4 °C93 %1006.1 hPa4.8 kmSE (140°)7.4 km/h0.25 mmOvercast
11:54 AM4.4 °C3.9 °C97 %1006.1 hPa6.4 kmSE (140°)9.3 km/h0.25 mmOvercast
12:54 PM5.6 °C4.4 °C92 %1004.4 hPa16.1 kmSE (140°)9.3 km/hOvercast
1:27 PM7 °C6 °C93 %1004.1 hPa16.1 kmSouth (170°)9.3 km/hOvercast
1:54 PM8.3 °C5.6 °C83 %1003.4 hPa16.1 kmSE (140°)7.4 km/hOvercast
2:37 PM9 °C6 °C82 %1003.4 hPa16.1 kmSSW (210°)14.8 km/hScattered Clouds
2:54 PM8.9 °C6.1 °C83 %1003.4 hPa16.1 kmSSW (210°)13 km/hPartly Cloudy
3:54 PM12.2 °C1.7 °C49 %1003 hPa16.1 kmWNW (300°)25.9 km/h44.4 km/hPartly Cloudy
4:54 PM10.6 °C2.2 °C56 %1004.1 hPa16.1 kmNW (310°)20.4 km/h37 km/hClear
5:54 PM7.8 °C1.1 °C63 %1005.8 hPa16.1 kmNNW (340°)33.3 km/h48.1 km/hScattered Clouds
6:54 PM4.4 °C1.1 °C79 %1008.8 hPa16.1 kmNorth (350°)22.2 km/h31.5 km/hScattered Clouds
7:54 PM3.3 °C0 °C79 %1009.5 hPa16.1 kmNNW (340°)22.2 km/hPartly Cloudy
8:54 PM2.2 °C-1.1 °C79 %1010.5 hPa16.1 kmNorth (350°)18.5 km/h38.9 km/hPartly Cloudy
9:54 PM1.7 °C-1.7 °C78 %1011.5 hPa16.1 kmNorth (350°)20.4 km/h37 km/hClear
10:54 PM1.7 °C-1.7 °C78 %1011.9 hPa16.1 kmNNW (340°)14.8 km/hPartly Cloudy
11:54 PM2.2 °C-1.7 °C76 %1012.5 hPa16.1 kmNorth (350°)20.4 km/hMostly Cloudy
Hourly data recorded from KAVL, located 0 kilometers away from Asheville, North Carolina







STORIES FROM OUR PARTNERS